Location: Casilda
(33.0440°S, 61.1680°W)
Time: 14:30:28
(UTC-03:00)

ISS - Pass Details

Date: 26 June 2017
Orbit: 401 x 408 km, 51.6° (Epoch: 28 June)

Event Time Altitude Azimuth Distance (km) Brightness Sun altitude
Rises 18:49:44 0° 357° (N) 2,318 0.4 -9.0°
Reaches altitude 10° 18:52:46 10° 28° (NNE) 1,468 -1.1 -9.5°
Maximum altitude 18:54:13 12° 54° (NE) 1,335 -1.5 -9.8°
Enters shadow 18:55:31 10° 78° (ENE) 1,447 -1.5 -10.1°
